Lakeview, OR

6:13 PM PDT on August 26, 2016 (GMT -0700)
Lake County

Weather History for KLKV - February, 2013

Change the Weather History Date:

Monday, February 11, 2013

  Actual Average Record
Temperature  
Mean Temperature 29 °F -  
Max Temperature 39 °F 42 °F 59 °F (2016)
Min Temperature 19 °F 23 °F -9 °F (1999)
Degree Days  
Heating Degree Days 36    
Moisture  
Dew Point 22 °F    
Average Humidity 75    
Maximum Humidity 93    
Minimum Humidity 27    
Precipitation  
Precipitation 0.00 in - - ()
Sea Level Pressure  
Sea Level Pressure 30.19 in    
Wind  
Wind Speed 7 mph (North)    
Max Wind Speed 12 mph    
Max Gust Speed -    
Visibility 10 miles    
Events      
Averages and records for this station are not official NWS values.
T = Trace of Precipitation, MM = Missing Value Source: NWS Daily Summary

Daily Weather History Graph

Daily Weather History Graph

Search for Another Location

Airport or City:

Trip Planner

Search our weather history database for the weather conditions in past years. The results will help you decide how hot, cold, wet, or windy it might be!

Date:

Astronomy

Feb. 11, 2013 Rise Set
Actual Time 7:02 AM PST 5:29 PM PST
Civil Twilight 6:33 AM PST 5:58 PM PST
Nautical Twilight 6:00 AM PST 6:31 PM PST
Astronomical Twilight 5:28 AM PST 7:04 PM PST
Moon 7:27 AM PST (2/11) 7:35 PM PST (2/11)
Length of Visible Light 11h 24m
Length of Day
10h 27m
Waxing Crescent, 3% of the Moon is Illuminated
Feb 11
Waxing Crescent
Feb 17
First Quarter
Feb 25
Full
Mar 4
Last Quarter
Mar 11
New

Hourly Weather History & Observations

Time (PST) Temp. Windchill Dew Point Humidity Pressure Visibility Wind Dir Wind Speed Gust Speed Precip Events Conditions
12:15 AM - - - N/A% 30.15 in 10.0 mi North 10.4 mph - N/A   Clear
12:35 AM - - - N/A% 30.14 in 10.0 mi North 11.5 mph - N/A   Clear
12:55 AM - - - N/A% 30.14 in 10.0 mi North 10.4 mph - N/A   Clear
1:15 AM - - - N/A% 30.14 in 10.0 mi North 11.5 mph - N/A   Clear
1:35 AM - - - N/A% 30.14 in 10.0 mi North 11.5 mph - N/A   Clear
1:55 AM - - - N/A% 30.14 in 10.0 mi North 11.5 mph - N/A   Clear
2:15 AM - - - N/A% 30.15 in 10.0 mi NW 10.4 mph - N/A   Clear
2:35 AM - - - N/A% 30.15 in 10.0 mi NW 10.4 mph - N/A   Clear
2:55 AM - - - N/A% 30.14 in 10.0 mi NNW 9.2 mph - N/A   Clear
3:15 AM - - - N/A% 30.14 in 10.0 mi NW 9.2 mph - N/A   Clear
3:55 AM - - - N/A% 30.13 in 10.0 mi NNW 3.5 mph - N/A   Clear
4:15 AM - - - N/A% 30.14 in 10.0 mi NE 3.5 mph - N/A   Clear
4:35 AM - - - N/A% 30.14 in 10.0 mi NE 6.9 mph - N/A   Clear
4:55 AM - - - N/A% 30.14 in 10.0 mi NNE 4.6 mph - N/A   Clear
5:15 AM - - - N/A% 30.14 in 10.0 mi NNW 3.5 mph - N/A   Clear
5:35 AM - - - N/A% 30.15 in 10.0 mi North 4.6 mph - N/A   Clear
5:55 AM - - - N/A% 30.15 in 10.0 mi Calm Calm - N/A   Clear
6:15 AM - - - N/A% 30.16 in 10.0 mi North 6.9 mph - N/A   Clear
6:35 AM - - - N/A% 30.16 in 10.0 mi NNW 5.8 mph - N/A   Clear
6:55 AM - - - N/A% 30.16 in 10.0 mi NNW 3.5 mph - N/A   Clear
7:15 AM - - - N/A% 30.17 in 10.0 mi NW 4.6 mph - N/A   Clear
7:35 AM - - - N/A% 30.18 in 10.0 mi NNW 4.6 mph - N/A   Clear
7:55 AM - - - N/A% 30.18 in 10.0 mi Calm Calm - N/A   Clear
8:15 AM - - - N/A% 30.19 in 10.0 mi Calm Calm - N/A   Clear
8:35 AM - - - N/A% 30.20 in 10.0 mi Calm Calm - N/A   Clear
8:55 AM - - - N/A% 30.20 in 10.0 mi ESE 3.5 mph - N/A   Clear
9:15 AM - - - N/A% 30.20 in 10.0 mi Calm Calm - N/A   Clear
9:35 AM - - - N/A% 30.20 in 10.0 mi South 3.5 mph - N/A   Clear
9:55 AM - - - N/A% 30.20 in 10.0 mi SSE 3.5 mph - N/A   Clear
10:15 AM - - - N/A% 30.20 in 10.0 mi ESE 5.8 mph - N/A   Clear
10:35 AM - - - N/A% 30.20 in 10.0 mi SE 6.9 mph - N/A   Clear
10:55 AM - - - N/A% 30.20 in 10.0 mi SSE 6.9 mph - N/A   Clear
11:15 AM 28.4 °F 22.2 °F -2.2 °F 27% 30.21 in 10.0 mi SE 5.8 mph - N/A   Clear
11:35 AM 30.2 °F 26.7 °F 15.8 °F 55% 30.20 in 10.0 mi South 3.5 mph - N/A   Clear
11:55 AM 33.8 °F 29.6 °F 19.4 °F 56% 30.19 in 10.0 mi SSW 4.6 mph - N/A   Clear
12:15 PM 30.2 °F 25.4 °F 19.4 °F 64% 30.19 in 10.0 mi SE 4.6 mph - N/A   Clear
12:35 PM 30.2 °F 23.4 °F 23.0 °F 75% 30.19 in 10.0 mi SE 6.9 mph - N/A   Clear
12:55 PM 33.8 °F 29.6 °F 24.8 °F 70% 30.19 in 10.0 mi South 4.6 mph - N/A   Clear
1:15 PM 35.6 °F 29.9 °F 24.8 °F 65% 30.19 in 10.0 mi SSW 6.9 mph - N/A   Clear
1:35 PM 35.6 °F 30.7 °F 24.8 °F 65% 30.19 in 10.0 mi South 5.8 mph - N/A   Clear
1:55 PM 35.6 °F 31.7 °F 24.8 °F 65% 30.19 in 10.0 mi South 4.6 mph - N/A   Clear
2:55 PM 37.4 °F 33.8 °F 24.8 °F 60% 30.19 in 10.0 mi SSW 4.6 mph - N/A   Clear
3:15 PM 39.2 °F - 24.8 °F 56% 30.19 in 10.0 mi Calm Calm - N/A   Clear
3:35 PM 35.6 °F - 21.2 °F 56% 30.19 in 10.0 mi Calm Calm - N/A   Clear
3:55 PM 37.4 °F - 23.0 °F 56% 30.19 in 10.0 mi Calm Calm - N/A   Clear
4:15 PM 39.2 °F - 21.2 °F 49% 30.19 in 10.0 mi Calm Calm - N/A   Clear
4:35 PM 35.6 °F - 24.8 °F 65% 30.19 in 10.0 mi Calm Calm - N/A   Clear
4:55 PM 33.8 °F 30.8 °F 23.0 °F 65% 30.19 in 10.0 mi East 3.5 mph - N/A   Clear
5:15 PM 32.0 °F 28.7 °F 23.0 °F 69% 30.19 in 10.0 mi East 3.5 mph - N/A   Clear
5:35 PM 30.2 °F 26.7 °F 23.0 °F 75% 30.19 in 10.0 mi East 3.5 mph - N/A   Clear
5:55 PM 30.2 °F 26.7 °F 23.0 °F 75% 30.20 in 10.0 mi ESE 3.5 mph - N/A   Clear
6:15 PM 28.4 °F 24.6 °F 21.2 °F 74% 30.21 in 10.0 mi NE 3.5 mph - N/A   Clear
6:35 PM 28.4 °F 24.6 °F 23.0 °F 80% 30.21 in 10.0 mi North 3.5 mph - N/A   Clear
6:55 PM 26.6 °F 20.0 °F 21.2 °F 80% 30.21 in 10.0 mi NNW 5.8 mph - N/A   Clear
7:15 PM 24.8 °F 20.5 °F 21.2 °F 86% 30.22 in 10.0 mi NNW 3.5 mph - N/A   Clear
7:35 PM 23.0 °F 14.7 °F 21.2 °F 93% 30.22 in 10.0 mi North 6.9 mph - N/A   Clear
8:15 PM 23.0 °F 13.9 °F 21.2 °F 93% 30.23 in 10.0 mi NNW 8.1 mph - N/A   Clear
8:35 PM 23.0 °F 13.9 °F 21.2 °F 93% 30.23 in 10.0 mi NW 8.1 mph - N/A   Clear
8:55 PM 23.0 °F 13.9 °F 21.2 °F 93% 30.24 in 10.0 mi NW 8.1 mph - N/A   Clear
9:15 PM 21.2 °F 16.4 °F 19.4 °F 93% 30.24 in 10.0 mi NNW 3.5 mph - N/A   Clear
9:35 PM 19.4 °F - 17.6 °F 93% 30.25 in 10.0 mi Calm Calm - N/A   Clear
9:55 PM 21.2 °F - 19.4 °F 93% 30.25 in 10.0 mi Calm Calm - N/A   Clear
10:15 PM 23.0 °F 17.0 °F 21.2 °F 93% 30.25 in 10.0 mi North 4.6 mph - N/A   Clear
10:35 PM 26.6 °F 18.2 °F 24.8 °F 93% 30.26 in 10.0 mi North 8.1 mph - N/A   Clear
10:55 PM 26.6 °F 19.1 °F 24.8 °F 93% 30.25 in 10.0 mi North 6.9 mph - N/A   Clear
11:15 PM 28.4 °F 22.2 °F 24.8 °F 86% 30.26 in 10.0 mi North 5.8 mph - N/A   Clear
11:35 PM 26.6 °F 17.5 °F 24.8 °F 93% 30.26 in 10.0 mi NNW 9.2 mph - N/A   Clear
11:55 PM 26.6 °F 16.2 °F 24.8 °F 93% 30.27 in 10.0 mi NNW 11.5 mph - N/A   Clear